N8YZF Weather Reports


Display with metric or nautical units.
time (UTC)temp
F
wind
direction
speed
MPH
gust
MPH
rain 1hr
in
rain 24hr
in
rain mn
in
humidity
%
barometer
mb
20171125020823 52 232 9.0 16.0 0.00 0.00 0.00 60 994.4
20171125020314 52 217 6.0 10.0 0.00 0.00 0.00 60 994.4
20171125015748 52 239 6.0 10.0 0.00 0.00 0.00 60 994.5
20171125015215 52 227 8.0 10.0 0.00 0.00 0.00 59 994.5
20171125014644 52 218 9.0 24.0 0.00 0.00 0.00 59 994.4
20171125014556 52 234 8.0 12.0 0.00 0.00 0.00 59 994.5
20171125013523 52 216 9.0 13.0 0.00 0.00 0.00 59 994.5
20171125012931 52 214 7.0 12.0 0.00 0.00 0.00 59 994.7
20171125012402 52 213 7.0 11.0 0.00 0.00 0.00 58 994.7
20171125011826 52 238 9.0 13.0 0.00 0.00 0.00 58 994.7
20171125011325 52 203 8.0 11.0 0.00 0.00 0.00 58 994.9
20171125010734 52 212 7.0 10.0 0.00 0.00 0.00 57 994.9
20171125010201 52 229 8.0 11.0 0.00 0.00 0.00 57 994.9
20171125005613 52 202 6.0 11.0 0.00 0.00 0.00 57 995.0
20171125005040 52 223 6.0 11.0 0.00 0.00 0.00 56 995.0
20171125004448 53 209 5.0 11.0 0.00 0.00 0.00 56 994.9
20171125004415 53 224 6.0 9.0 0.00 0.00 0.00 55 994.9
20171125003337 53 222 8.0 20.0 0.00 0.00 0.00 55 994.9
20171125002816 53 217 9.0 20.0 0.00 0.00 0.00 54 995.1
20171125002723 53 232 6.0 16.0 0.00 0.00 0.00 54 995.1
20171125002331 53 229 7.0 13.0 0.00 0.00 0.00 54 995.1
20171125001132 53 256 7.0 16.0 0.00 0.00 0.00 54 995.1
20171125000539 54 236 9.0 16.0 0.00 0.00 0.00 53 995.2
20171124235947 54 233 10.0 14.0 0.00 0.00 0.00 53 995.4
20171124235413 54 225 8.0 15.0 0.00 0.00 0.00 53 995.4
20171124234817 54 207 7.0 11.0 0.00 0.00 0.00 52 995.4
20171124234232 54 215 7.0 17.0 0.00 0.00 0.00 53 995.0
20171124233659 54 227 8.0 13.0 0.00 0.00 0.00 52 995.0
20171124233123 54 221 7.0 15.0 0.00 0.00 0.00 52 995.0
20171124232534 54 232 8.0 15.0 0.00 0.00 0.00 52 993.9
20171124232001 54 194 8.0 14.0 0.00 0.00 0.00 52 993.9
20171124231409 54 218 5.0 11.0 0.00 0.00 0.00 52 994.0
20171124231328 54 209 6.0 10.0 0.00 0.00 0.00 51 994.0
20171124230320 55 196 6.0 10.0 0.00 0.00 0.00 51 994.1
20171124225741 55 191 6.0 10.0 0.00 0.00 0.00 50 994.1
20171124225639 55 186 8.0 13.0 0.00 0.00 0.00 50 994.1
20171124225248 55 180 6.0 13.0 0.00 0.00 0.00 50 994.1
20171124224048 56 163 6.0 11.0 0.00 0.00 0.00 49 994.1
20171124223510 56 207 5.0 13.0 0.00 0.00 0.00 49 994.1
20171124222924 56 198 5.0 11.0 0.00 0.00 0.00 48 994.6
20171124222352 56 202 4.0 11.0 0.00 0.00 0.00 48 994.7
20171124221827 56 153 6.0 20.0 0.00 0.00 0.00 48 994.7
20171124221320 57 228 9.0 15.0 0.00 0.00 0.00 47 994.9
20171124221316 57 188 8.0 20.0 0.00 0.00 0.00 47 994.9
20171124220314 57 196 10.0 15.0 0.00 0.00 0.00 47 994.9
20171124220308 57 191 10.0 17.0 0.00 0.00 0.00 47 995.2
20171124215245 57 209 9.0 17.0 0.00 0.00 0.00 47 995.2
20171124214710 58 208 9.0 12.0 0.00 0.00 0.00 47 995.2
20171124214115 58 229 9.0 18.0 0.00 0.00 0.00 46 995.4
20171124213538 58 202 9.0 18.0 0.00 0.00 0.00 46 995.4
20171124213414 58 232 10.0 20.0 0.00 0.00 0.00 45 995.9
20171124213023 58 219 8.0 16.0 0.00 0.00 0.00 46 995.8
20171124211836 59 197 11.0 20.0 0.00 0.00 0.00 45 995.9
20171124211326 59 220 10.0 16.0 0.00 0.00 0.00 45 996.0
20171124210742 59 215 11.0 18.0 0.00 0.00 0.00 45 996.0
20171124210209 59 197 8.0 13.0 0.00 0.00 0.00 45 996.0
20171124210119 59 216 10.0 16.0 0.00 0.00 0.00 45 996.2
20171124205547 59 225 11.0 19.0 0.00 0.00 0.00 45 996.2
20171124204450 59 208 10.0 21.0 0.00 0.00 0.00 45 996.6
20171124203917 59 218 10.0 21.0 0.00 0.00 0.00 45 996.6
20171124203341 59 190 10.0 16.0 0.00 0.00 0.00 45 996.6
20171124202817 59 140 10.0 19.0 0.00 0.00 0.00 45 996.7
20171124202307 59 192 8.0 8.0 0.00 0.00 0.00 45 996.7
20171124200732 58 209 8.0 12.0 0.00 0.00 0.00 47 997.0
20171124200157 58 193 8.0 12.0 0.00 0.00 0.00 47 997.0
20171124195602 58 182 8.0 14.0 0.00 0.00 0.00 47 997.3
20171124195025 58 223 9.0 14.0 0.00 0.00 0.00 48 997.3
20171124194435 58 228 12.0 16.0 0.00 0.00 0.00 48 997.5
20171124193857 58 220 9.0 17.0 0.00 0.00 0.00 47 997.5
20171124193327 58 238 7.0 13.0 0.00 0.00 0.00 48 997.5
20171124192820 57 204 8.0 13.0 0.00 0.00 0.00 49 997.8
20171124192248 56 196 9.0 13.0 0.00 0.00 0.00 50 997.8
20171124191707 56 209 8.0 11.0 0.00 0.00 0.00 50 997.7
20171124191119 56 184 7.0 13.0 0.00 0.00 0.00 51 998.1
20171124190526 55 196 4.0 13.0 0.00 0.00 0.00 52 998.1
20171124185935 54 197 5.0 11.0 0.00 0.00 0.00 53 998.5
20171124185412 53 200 6.0 13.0 0.00 0.00 0.00 55 998.4
20171124184840 53 209 6.0 13.0 0.00 0.00 0.00 55 998.4
20171124184330 53 144 7.0 14.0 0.00 0.00 0.00 56 998.5
20171124184226 53 215 9.0 16.0 0.00 0.00 0.00 56 998.5
20171124183833 53 196 7.0 14.0 0.00 0.00 0.00 55 998.5
20171124182639 52 202 9.0 16.0 0.00 0.00 0.00 56 998.7
20171124182609 52 215 7.0 15.0 0.00 0.00 0.00 57 998.7
20171124181507 52 220 7.0 11.0 0.00 0.00 0.00 57 998.9
20171124181431 51 186 7.0 11.0 0.00 0.00 0.00 59 998.9
20171124180326 51 205 5.0 11.0 0.00 0.00 0.00 59 998.9
20171124175748 51 190 7.0 14.0 0.00 0.00 0.00 59 999.3
20171124175213 51 215 9.0 14.0 0.00 0.00 0.00 59 999.3
20171124174640 51 240 5.0 13.0 0.00 0.00 0.00 58 999.3
20171124174055 51 186 4.0 14.0 0.00 0.00 0.00 59 999.8
20171124173521 51 200 5.0 14.0 0.00 0.00 0.00 61 999.8
20171124172927 51 211 4.0 10.0 0.00 0.00 0.00 60 1000.1
20171124172358 51 236 6.0 11.0 0.00 0.00 0.00 61 1000.1
20171124171825 51 188 6.0 12.0 0.00 0.00 0.00 61 1000.1
20171124171312 51 201 5.0 13.0 0.00 0.00 0.00 61 1000.6
20171124170736 50 210 10.0 17.0 0.00 0.00 0.00 62 1000.6
20171124170159 50 219 10.0 17.0 0.00 0.00 0.00 62 1000.6
20171124165607 50 184 7.0 12.0 0.00 0.00 0.00 64 1001.0
20171124165031 49 225 6.0 8.0 0.00 0.00 0.00 64 1001.0
20171124164442 49 211 8.0 17.0 0.00 0.00 0.00 66 1001.3
20171124163909 48 211 7.0 17.0 0.00 0.00 0.00 67 1001.2
20171124163323 47 192 7.0 13.0 0.00 0.00 0.00 70 1001.2
20171124162812 47 228 6.0 13.0 0.00 0.00 0.00 70 1001.4
20171124162308 46 201 5.0 8.0 0.00 0.00 0.00 73 1001.4
20171124161727 46 199 7.0 16.0 0.00 0.00 0.00 74 1001.4
20171124161137 45 208 6.0 10.0 0.00 0.00 0.00 75 1001.8
20171124160540 44 209 4.0 10.0 0.00 0.00 0.00 78 1001.7
20171124155946 43 221 3.0 15.0 0.00 0.00 0.00 80 1001.8
20171124155411 42 191 4.0 15.0 0.00 0.00 0.00 81 1001.8
20171124154834 41 188 3.0 9.0 0.00 0.00 0.00 83 1001.7
20171124154312 41 186 4.0 9.0 0.00 0.00 0.00 84 1002.0
20171124154303 40 202 6.0 11.0 0.00 0.00 0.00 84 1002.0
20171124153228 40 199 5.0 12.0 0.00 0.00 0.00 85 1001.9
20171124152634 40 203 5.0 8.0 0.00 0.00 0.00 85 1002.0
20171124152102 40 206 6.0 11.0 0.00 0.00 0.00 85 1002.0
20171124152010 40 190 4.0 11.0 0.00 0.00 0.00 86 1002.0
20171124150918 40 201 6.0 13.0 0.00 0.00 0.00 86 1002.0
20171124150325 39 213 6.0 13.0 0.00 0.00 0.00 87 1002.0
20171124145808 39 207 5.0 11.0 0.00 0.00 0.00 86 1002.0
20171124145310 39 202 6.0 11.0 0.00 0.00 0.00 86 1001.9
20171124145235 39 200 5.0 11.0 0.00 0.00 0.00 87 1001.9
20171124144141 39 194 6.0 11.0 0.00 0.00 0.00 87 1002.4
20171124144107 39 205 6.0 10.0 0.00 0.00 0.00 87 1002.4
20171124143006 38 200 3.0 8.0 0.00 0.00 0.00 88 1002.5
20171124142430 38 199 2.0 7.0 0.00 0.00 0.00 88 1002.5
20171124141819 38 203 3.0 8.0 0.00 0.00 0.00 89 1002.4
20171124141256 38 192 4.0 8.0 0.00 0.00 0.00 89 1002.7
20171124140742 38 190 5.0 10.0 0.00 0.00 0.00 89 1002.7
20171124135548 37 211 2.0 4.0 0.00 0.00 0.00 91 1002.6
20171124135020 36 207 2.0 11.0 0.00 0.00 0.00 91 1002.6
20171124134426 36 202 3.0 11.0 0.00 0.00 0.00 91 1002.5
20171124133825 36 201 6.0 10.0 0.00 0.00 0.00 92 1002.5
20171124133320 35 201 5.0 10.0 0.00 0.00 0.00 92 1002.4
20171124132819 35 203 3.0 9.0 0.00 0.00 0.00 91 1002.6
20171124132745 35 199 5.0 9.0 0.00 0.00 0.00 92 1002.6
20171124131712 35 203 6.0 10.0 0.00 0.00 0.00 92 1002.6
20171124131119 35 202 5.0 10.0 0.00 0.00 0.00 92 1002.8
20171124130529 35 208 6.0 10.0 0.00 0.00 0.00 92 1002.8
20171124125941 35 192 7.0 11.0 0.00 0.00 0.00 93 1003.1
20171124125410 34 200 6.0 10.0 0.00 0.00 0.00 92 1003.1
20171124125231 34 203 4.0 7.0 0.00 0.00 0.00 93 1003.2
20171124124839 34 207 6.0 9.0 0.00 0.00 0.00 93 1003.1
20171124123652 34 198 3.0 7.0 0.00 0.00 0.00 93 1003.2
20171124123617 33 197 5.0 7.0 0.00 0.00 0.00 93 1003.2
20171124122528 33 199 3.0 8.0 0.00 0.00 0.00 93 1003.2
20171124122456 33 197 1.0 8.0 0.00 0.00 0.00 93 1003.2
20171124121406 33 195 0.0 1.0 0.00 0.00 0.00 93 1003.7
20171124121321 33 195 0.0 1.0 0.00 0.00 0.00 93 1003.7
20171124120312 33 195 2.0 9.0 0.00 0.00 0.00 93 1003.7
20171124120247 32 195 3.0 9.0 0.00 0.00 0.00 92 1003.7
20171124115713 32 189 0.0 3.0 0.00 0.00 0.00 92 1003.7
20171124114640 32 189 0.0 0.0 0.00 0.00 0.00 92 1003.7
20171124114049 32 189 0.0 0.0 0.00 0.00 0.00 92 1003.8
20171124114018 32 186 0.0 0.0 0.00 0.00 0.00 91 1003.8
20171124112927 32 186 0.0 0.0 0.00 0.00 0.00 91 1003.8
20171124112326 32 184 0.0 0.0 0.00 0.00 0.00 91 1003.8
20171124111804 32 184 0.0 0.0 0.00 0.00 0.00 91 1003.8
20171124111215 32 182 0.0 0.0 0.00 0.00 0.00 91 1004.1
20171124110623 32 180 0.0 0.0 0.00 0.00 0.00 91 1004.1
20171124110020 32 181 0.0 0.0 0.00 0.00 0.00 91 1004.1
20171124105454 32 181 0.0 0.0 0.00 0.00 0.00 91 1004.1
20171124104856 32 180 0.0 0.0 0.00 0.00 0.00 91 1004.1
20171124104745 32 180 0.0 0.0 0.00 0.00 0.00 90 1004.4
20171124104206 32 180 0.0 0.0 0.00 0.00 0.00 90 1004.4
20171124103134 32 181 0.0 0.0 0.00 0.00 0.00 90 1004.4
20171124102543 32 181 0.0 0.0 0.00 0.00 0.00 91 1004.7
20171124102012 32 181 0.0 0.0 0.00 0.00 0.00 90 1004.7
20171124101422 31 181 0.0 0.0 0.00 0.00 0.00 91 1004.6
20171124100819 31 182 0.0 0.0 0.00 0.00 0.00 91 1004.6
20171124100743 31 182 0.0 0.0 0.00 0.00 0.00 91 1004.6
20171124100150 31 176 0.0 0.0 0.00 0.00 0.00 91 1004.7
20171124095113 31 176 0.0 0.0 0.00 0.00 0.00 91 1004.7
20171124094522 31 175 0.0 0.0 0.00 0.00 0.00 91 1004.6
20171124093950 30 174 0.0 0.0 0.00 0.00 0.00 91 1004.6
20171124093416 30 174 0.0 0.0 0.00 0.00 0.00 91 1004.5
20171124092812 30 173 0.0 0.0 0.00 0.00 0.00 91 1004.6
20171124092242 30 173 0.0 0.0 0.00 0.00 0.00 91 1004.6
20171124091644 29 173 0.0 0.0 0.00 0.00 0.00 90 1005.1
20171124090007 29 173 0.0 0.0 0.00 0.00 0.00 90 1005.1
20171124085509 29 173 0.0 0.0 0.00 0.00 0.00 90 1005.4
20171124084934 29 173 0.0 0.0 0.00 0.00 0.00 90 1005.4
20171124084322 29 173 0.0 0.0 0.00 0.00 0.00 90 1005.5
20171124083749 29 173 0.0 0.0 0.00 0.00 0.00 91 1005.5
20171124083717 29 173 0.0 1.0 0.00 0.00 0.00 90 1005.5
20171124083131 29 173 0.0 1.0 0.00 0.00 0.00 90 1005.6
20171124082046 29 173 0.0 0.0 0.00 0.00 0.00 91 1005.6
20171124082002 29 173 0.0 0.0 0.00 0.00 0.00 90 1005.6
20171124080911 29 173 0.0 0.0 0.00 0.00 0.00 90 1005.6
20171124080314 29 173 0.0 0.0 0.00 0.00 0.00 91 1005.6
20171124075733 29 173 0.0 0.0 0.00 0.00 0.00 91 1005.6
20171124075157 29 173 0.0 0.0 0.00 0.00 0.00 91 1005.6
20171124075119 29 175 0.0 0.0 0.00 0.00 0.00 91 1005.6
20171124074028 29 175 0.0 0.0 0.00 0.00 0.00 91 1005.9
20171124073453 29 175 0.0 0.0 0.00 0.00 0.00 92 1005.9
20171124072904 29 186 0.0 0.0 0.00 0.00 0.00 92 1006.2
20171124072315 28 225 0.0 0.0 0.00 0.00 0.00 92 1006.2
20171124071746 28 229 0.0 0.0 0.00 0.00 0.00 91 1006.2
20171124071150 28 229 0.0 0.0 0.00 0.00 0.00 91 1006.4
20171124070554 29 229 0.0 0.0 0.00 0.00 0.00 92 1006.4
20171124070006 28 229 0.0 0.0 0.00 0.00 0.00 92 1006.5
20171124065930 28 232 0.0 0.0 0.00 0.00 0.00 92 1006.5
20171124064856 28 232 0.0 0.0 0.00 0.00 0.00 92 1006.5
20171124064753 28 232 0.0 0.0 0.00 0.00 0.00 92 1007.1
20171124063719 28 232 0.0 0.0 0.00 0.00 0.00 92 1007.1
20171124063148 28 232 0.0 0.0 0.00 0.00 0.00 92 1007.1
20171124062601 28 232 0.0 0.0 0.00 0.00 0.00 92 1007.1
20171124062029 28 232 0.0 0.0 0.00 0.00 0.00 93 1007.5
20171124062025 28 232 0.0 0.0 0.00 0.00 0.00 93 1007.1
20171124060953 28 232 0.0 0.0 0.00 0.00 0.00 93 1007.4
20171124060422 27 232 0.0 0.0 0.00 0.00 0.00 94 1007.4
20171124055817 27 232 0.0 0.0 0.00 0.00 0.00 94 1007.6
20171124055240 26 234 0.0 0.0 0.00 0.00 0.00 93 1007.5
20171124054706 26 234 0.0 0.0 0.00 0.00 0.00 92 1007.5
20171124054117 26 234 0.0 0.0 0.00 0.00 0.00 92 1007.6
20171124054043 26 234 0.0 0.0 0.00 0.00 0.00 91 1007.6
20171124052951 26 234 0.0 0.0 0.00 0.00 0.00 91 1007.7
20171124052417 27 234 0.0 0.0 0.00 0.00 0.00 91 1007.8
20171124052320 27 234 0.0 0.0 0.00 0.00 0.00 91 1007.8
20171124051740 27 234 0.0 0.0 0.00 0.00 0.00 91 1007.9
20171124050648 28 234 0.0 1.0 0.00 0.00 0.00 91 1007.9
20171124050117 28 234 0.0 1.0 0.00 0.00 0.00 92 1007.9
20171124045523 27 257 0.0 0.0 0.00 0.00 0.00 92 1008.6
20171124045449 27 259 0.0 0.0 0.00 0.00 0.00 92 1008.6
20171124044354 27 259 0.0 0.0 0.00 0.00 0.00 92 1008.7
20171124044307 27 259 0.0 0.0 0.00 0.00 0.00 92 1008.7
20171124043235 27 259 0.0 0.0 0.00 0.00 0.00 91 1008.7
20171124042643 27 259 0.0 0.0 0.00 0.00 0.00 91 1008.7
20171124042611 28 259 0.0 0.0 0.00 0.00 0.00 91 1008.7
20171124041518 27 259 0.0 0.0 0.00 0.00 0.00 92 1009.0
20171124040924 27 259 0.0 0.0 0.00 0.00 0.00 91 1009.0
20171124040319 27 259 0.0 0.0 0.00 0.00 0.00 91 1009.0
20171124035744 28 259 0.0 0.0 0.00 0.00 0.00 91 1008.3
20171124035214 28 259 0.0 0.0 0.00 0.00 0.00 91 1008.3
20171124034639 28 259 0.0 0.0 0.00 0.00 0.00 92 1008.3
20171124034551 27 259 0.0 0.0 0.00 0.00 0.00 91 1008.2
20171124033520 27 259 0.0 0.0 0.00 0.00 0.00 91 1008.2
20171124033007 27 259 0.0 0.0 0.00 0.00 0.00 91 1008.2
20171124032501 27 259 0.0 0.0 0.00 0.00 0.00 91 1008.6
20171124031926 27 259 0.0 0.0 0.00 0.00 0.00 91 1008.6
20171124031335 27 259 0.0 0.0 0.00 0.00 0.00 90 1008.7
20171124030819 27 259 0.0 0.0 0.00 0.00 0.00 91 1008.7
20171124030304 27 259 0.0 0.0 0.00 0.00 0.00 91 1008.7
20171124025717 26 260 0.0 0.0 0.00 0.00 0.00 91 1009.1
20171124025145 26 260 0.0 0.0 0.00 0.00 0.00 90 1009.0
20171124024612 26 260 0.0 0.0 0.00 0.00 0.00 90 1009.1
20171124024024 26 260 0.0 0.0 0.00 0.00 0.00 90 1009.0
20171124023453 26 260 0.0 0.0 0.00 0.00 0.00 90 1009.0
20171124022903 26 260 0.0 0.0 0.00 0.00 0.00 90 1009.2
20171124022319 26 260 0.0 0.0 0.00 0.00 0.00 90 1009.2
20171124022246 26 260 0.0 0.0 0.00 0.00 0.00 90 1009.2